Weather History for KCPC - February, 2013

Change the Weather History Date:

Saturday, February 16, 2013

  Actual Average (KLBT) Record (KLBT)
Temperature  
Mean Temperature 39 °F 47 °F  
Max Temperature 48 °F 58 °F 78 °F (2001)
Min Temperature 32 °F 36 °F 22 °F (2007)
Degree Days  
Heating Degree Days 26 18  
Month to date heating degree days 312  
Since 1 July heating degree days 2031  
Cooling Degree Days 0 0  
Month to date cooling degree days 0  
Year to date cooling degree days 1  
Moisture  
Dew Point 36 °F    
Average Humidity 91    
Maximum Humidity 98    
Minimum Humidity 68    
Precipitation  
Precipitation 0.14 in 0.12 in 0.64 in (2003)
Month to date precipitation 1.53  
Year to date precipitation 4.50  
Sea Level Pressure  
Sea Level Pressure 29.88 in    
Wind  
Wind Speed 3 mph (NW)    
Max Wind Speed 9 mph    
Max Gust Speed 18 mph    
Visibility 9 miles    
Events Rain , Snow    
T = Trace of Precipitation, MM = Missing Value Source: NWS Daily Summary

Daily Weather History Graph

Daily Weather History Graph

Search for Another Location

Airport or City:

Trip Planner

Search our weather history database for the weather conditions in past years. The results will help you decide how hot, cold, wet, or windy it might be!

Date:

Astronomy

Feb. 16, 2013 Rise Set
Actual Time 6:58 AM EST 5:59 PM EST
Civil Twilight 6:32 AM EST 6:25 PM EST
Nautical Twilight 6:03 AM EST 6:54 PM EST
Astronomical Twilight 5:34 AM EST 7:23 PM EST
Moon 10:29 AM EST (2/16) No Moon Set
Length of Visible Light 11h 52m
Length of Day
11h 01m
Waxing Crescent, 39% of the Moon is Illuminated
Feb 16
Waxing Crescent
Feb 17
First Quarter
Feb 25
Full
Mar 4
Last Quarter
Mar 11
New

Hourly Weather History & Observations

Time (EST) Temp. Windchill Dew Point Humidity Pressure Visibility Wind Dir Wind Speed Gust Speed Precip Events Conditions
12:15 AM 41.4 °F 39.4 °F 38.8 °F 91% 29.96 in 10.0 mi SSW 3.5 mph - N/A   Clear
12:35 AM 41.2 °F 39.2 °F 38.5 °F 90% 29.95 in 10.0 mi SSW 3.5 mph - N/A   Clear
12:55 AM 40.8 °F 38.8 °F 38.1 °F 90% 29.95 in 10.0 mi SSW 3.5 mph - N/A   Clear
1:15 AM 41.4 °F 39.4 °F 38.7 °F 90% 29.94 in 10.0 mi SSW 3.5 mph - N/A   Clear
1:35 AM 41.0 °F - 38.7 °F 91% 29.93 in 10.0 mi Calm Calm - N/A   Clear
1:55 AM 41.2 °F - 38.5 °F 90% 29.93 in 10.0 mi Calm Calm - N/A   Clear
2:15 AM 40.8 °F 38.8 °F 38.5 °F 91% 29.92 in 10.0 mi SSW 3.5 mph - N/A   Clear
2:35 AM 40.5 °F 38.4 °F 38.3 °F 92% 29.92 in 10.0 mi SSW 3.5 mph - N/A   Clear
2:55 AM 40.3 °F 37.1 °F 38.1 °F 92% 29.92 in 10.0 mi SSW 4.6 mph - N/A   Clear
3:15 AM 40.5 °F 37.3 °F 38.5 °F 93% 29.94 in 10.0 mi NW 4.6 mph - N/A   Clear
3:35 AM 41.2 °F - 38.5 °F 90% 29.94 in 10.0 mi Calm Calm - N/A   Clear
3:55 AM 40.5 °F - 37.9 °F 91% 29.91 in 10.0 mi Calm Calm - N/A   Scattered Clouds
4:15 AM 39.6 °F - 37.6 °F 93% 29.90 in 10.0 mi Calm Calm - N/A   Scattered Clouds
4:35 AM 39.0 °F - 37.4 °F 94% 29.90 in 10.0 mi Calm Calm - N/A   Clear
4:55 AM 38.5 °F - 37.4 °F 96% 29.90 in 10.0 mi Calm Calm - N/A   Clear
5:15 AM 37.2 °F - 36.0 °F 95% 29.89 in 7.0 mi Calm Calm - N/A   Clear
5:35 AM 37.4 °F - 36.5 °F 97% 29.89 in 7.0 mi Calm Calm - N/A   Clear
5:55 AM 37.6 °F - 36.9 °F 97% 29.89 in 7.0 mi Calm Calm - N/A   Clear
6:15 AM 37.4 °F - 36.7 °F 97% 29.89 in 7.0 mi Calm Calm - N/A   Clear
6:35 AM 36.9 °F - 36.1 °F 97% 29.89 in 7.0 mi Calm Calm - N/A   Clear
6:55 AM 37.4 °F 34.9 °F 36.9 °F 98% 29.89 in 7.0 mi North 3.5 mph - N/A   Clear
7:15 AM 38.3 °F - 37.4 °F 97% 29.89 in 10.0 mi Calm Calm - N/A   Clear
7:35 AM 39.7 °F 37.6 °F 37.6 °F 92% 29.89 in 10.0 mi NNE 3.5 mph - N/A   Clear
7:55 AM 41.2 °F 38.2 °F 37.2 °F 86% 29.89 in 10.0 mi NNE 4.6 mph - N/A   Clear
8:15 AM 42.8 °F 39.3 °F 37.2 °F 81% 29.88 in 10.0 mi NNE 5.8 mph - N/A   Clear
8:35 AM 43.2 °F 40.5 °F 36.7 °F 78% 29.89 in 10.0 mi NNE 4.6 mph - N/A   Clear
8:55 AM 43.7 °F 38.6 °F 37.2 °F 78% 29.89 in 10.0 mi NNE 9.2 mph - N/A   Clear
9:15 AM 44.6 °F 40.2 °F 37.2 °F 75% 29.88 in 10.0 mi NNE 8.1 mph - N/A   Clear
9:35 AM 45.9 °F 41.7 °F 37.4 °F 72% 29.88 in 10.0 mi NNE 8.1 mph - N/A   Clear
9:55 AM 46.4 °F 42.4 °F 36.9 °F 69% 29.88 in 10.0 mi North 8.1 mph - N/A   Scattered Clouds
10:15 AM 46.6 °F - 36.7 °F 68% 29.88 in 10.0 mi North 5.8 mph - N/A   Scattered Clouds
10:35 AM 46.0 °F 43.1 °F 36.1 °F 68% 29.88 in 10.0 mi North 5.8 mph - N/A   Mostly Cloudy
1:15 PM 46.8 °F - 38.3 °F 72% 29.81 in 10.0 mi West 5.8 mph - N/A Rain Light Rain
1:35 PM 41.7 °F 38.8 °F 37.2 °F 84% 29.81 in 10.0 mi NW 4.6 mph 16.1 mph N/A Rain Light Rain
1:55 PM 40.3 °F 37.1 °F 37.4 °F 89% 29.80 in 10.0 mi NW 4.6 mph - 0.01 in Rain Light Rain
2:15 PM 37.9 °F 32.7 °F 35.8 °F 92% 29.81 in 10.0 mi West 6.9 mph - N/A Rain Rain
2:35 PM 36.7 °F 32.9 °F 34.5 °F 92% 29.83 in 4.0 mi WNW 4.6 mph 18.4 mph 0.02 in Rain Rain
2:55 PM 33.6 °F 29.4 °F 32.2 °F 94% 29.83 in 1.0 mi WNW 4.6 mph - 0.04 in Snow Light Snow
3:15 PM 33.4 °F 30.4 °F 32.4 °F 96% 29.83 in 2.0 mi NW 3.5 mph - 0.02 in Snow Light Snow
3:35 PM 34.7 °F 29.6 °F 33.8 °F 97% 29.83 in 4.0 mi NW 5.8 mph - 0.03 in Rain Light Rain
3:55 PM 35.1 °F 32.2 °F 34.2 °F 97% 29.83 in 5.0 mi NW 3.5 mph - 0.04 in Rain Light Rain
4:15 PM 35.1 °F 32.2 °F 34.2 °F 97% 29.84 in 5.0 mi WNW 3.5 mph - 0.01 in Rain Rain
4:35 PM 35.2 °F - 34.3 °F 97% 29.83 in 7.0 mi Calm Calm - 0.03 in Rain Light Rain
4:55 PM 35.4 °F - 34.5 °F 97% 29.83 in 10.0 mi Calm Calm - 0.03 in Rain Light Rain
5:15 PM 35.4 °F - 34.5 °F 97% 29.81 in 7.0 mi Calm Calm - N/A Rain Light Rain
5:35 PM 35.2 °F 30.3 °F 34.3 °F 97% 29.78 in 10.0 mi NNE 5.8 mph - N/A   Overcast
5:55 PM 35.6 °F 31.7 °F 34.7 °F 97% 29.83 in 10.0 mi West 4.6 mph - N/A   Overcast
6:15 PM 35.2 °F 31.2 °F 34.2 °F 96% 29.84 in 10.0 mi NW 4.6 mph - N/A   Overcast
6:35 PM 35.1 °F 31.0 °F 34.0 °F 96% 29.85 in 10.0 mi WNW 4.6 mph - 0.01 in   Overcast
6:55 PM 35.1 °F - 33.8 °F 95% 29.85 in 10.0 mi Calm Calm - 0.01 in   Overcast
7:15 PM 35.1 °F 30.1 °F 33.8 °F 95% 29.86 in 10.0 mi NW 5.8 mph - N/A   Overcast
7:35 PM 35.1 °F 32.2 °F 33.4 °F 94% 29.86 in 10.0 mi NNW 3.5 mph - N/A   Overcast
7:55 PM 35.1 °F 32.2 °F 33.3 °F 93% 29.87 in 10.0 mi North 3.5 mph - N/A   Overcast
8:15 PM 34.9 °F 32.0 °F 32.9 °F 92% 29.86 in 10.0 mi North 3.5 mph - N/A   Overcast
8:35 PM 35.1 °F 31.0 °F 33.3 °F 93% 29.87 in 10.0 mi NNE 4.6 mph - N/A   Overcast
8:55 PM 34.9 °F - 33.1 °F 93% 29.87 in 10.0 mi Calm Calm - N/A   Mostly Cloudy
9:15 PM 35.1 °F - 33.4 °F 94% 29.88 in 10.0 mi Calm Calm - N/A   Drizzle
9:35 PM 35.1 °F 32.2 °F 33.3 °F 93% 29.89 in 10.0 mi WNW 3.5 mph - N/A   Drizzle
9:55 PM 34.7 °F 30.6 °F 32.9 °F 93% 29.90 in 5.0 mi West 4.6 mph - N/A Rain Light Rain
10:15 PM 34.2 °F 31.2 °F 32.9 °F 95% 29.92 in 7.0 mi West 3.5 mph - N/A Rain Light Rain
10:35 PM 33.1 °F 28.7 °F 32.0 °F 96% 29.92 in 2.5 mi West 4.6 mph - 0.01 in Snow Light Snow
10:55 PM 32.9 °F 28.5 °F 32.0 °F 96% 29.93 in 3.0 mi West 4.6 mph - 0.01 in Snow Light Snow
11:15 PM 32.9 °F 29.8 °F 32.2 °F 97% 29.93 in 5.0 mi WNW 3.5 mph - N/A Rain Light Rain
11:35 PM 33.4 °F 29.1 °F 32.9 °F 98% 29.94 in 7.0 mi West 4.6 mph - N/A   Overcast
11:55 PM 33.8 °F 28.6 °F 32.5 °F 95% 29.94 in 10.0 mi West 5.8 mph - N/A   Mostly Cloudy